Wind_Speed
18 18 19 18 18 18 19 18 18 18 17 17 17 17 18 19 19 19 20 20 21 21 21 21 21 21 20 21 21 22 24 25 25 24 24 25 26 26 27 27 28 28 28 29 29 29 29 29 29 30 30 31 33 34 35 36 37 38 40 41 40 39 38 37 35 34 32 28 26 27 29 30 29 28 27 23 20 24 24 24 25 24 25 25 23 22 20 17
19 19 19 19 19 19 19 19 19 19 19 18 18 18 19 19 19 19 19 20 20 21 20 20 20 20 20 21 22 23 24 25 25 25 25 26 26 27 27 27 28 28 28 29 29 29 30 30 30 30 31 32 32 34 36 37 38 40 40 41 41 39 37 37 36 34 34 31 29 30 30 31 31 30 28 24 21 25 25 24 25 24 23 23 22 21 19 17
20 20 20 20 20 20 20 20 20 20 20 19 19 19 19 19 19 19 19 19 20 19 19 19 19 20 20 21 22 23 24 25 25 25 26 26 27 27 27 27 28 28 28 28 29 29 30 30 30 31 31 32 33 35 36 37 39 40 40 42 41 38 38 37 37 36 36 34 31 32 32 32 33 32 31 28 23 26 29 25 23 24 24 22 21 21 20 19
21 21 22 21 21 21 21 20 20 20 20 20 20 20 20 20 20 19 19 19 19 19 19 19 20 20 20 21 22 23 24 25 25 25 26 26 27 27 27 28 28 28 28 28 29 29 30 30 31 31 32 33 34 35 36 37 39 40 41 42 41 39 40 40 39 39 38 37 36 34 34 34 34 35 35 32 25 27 33 30 26 26 24 23 22 22 22 21
23 23 23 23 23 22 22 21 21 21 21 21 21 21 21 21 21 20 20 20 20 20 20 20 20 20 20 21 22 23 24 25 25 25 26 27 27 27 28 28 28 28 28 28 29 29 30 30 31 32 33 34 34 35 35 37 39 40 41 41 41 41 42 41 41 42 40 40 40 37 37 36 36 36 37 35 29 31 37 34 32 30 26 24 23 23 23 22
23 23 23 24 24 23 23 22 22 22 22 22 22 22 22 22 22 22 22 22 22 22 22 22 22 21 21 22 23 24 25 25 26 26 26 27 27 27 27 27 27 28 28 28 28 28 29 30 32 33 33 33 34 35 36 38 40 41 41 41 41 42 43 42 43 45 44 43 42 40 39 39 38 37 38 38 34 34 40 39 38 34 28 26 25 24 24 23
24 24 24 24 24 24 24 23 23 22 22 22 23 23 23 23 23 23 23 23 24 24 24 24 23 23 23 23 24 24 25 26 26 26 26 26 26 26 27 27 27 27 27 28 28 28 29 31 31 31 31 31 31 32 34 37 39 41 42 42 42 43 43 44 45 46 45 45 44 43 42 40 40 39 38 39 36 35 41 43 41 38 31 26 26 27 26 24
24 24 24 24 25 25 24 24 24 23 23 23 23 24 24 24 24 24 24 24 24 24 25 25 25 24 24 24 25 24 25 26 26 26 26 26 25 25 25 25 26 26 25 26 26 27 28 28 28 27 28 29 28 29 31 33 35 37 40 43 44 44 45 46 47 47 46 47 47 45 44 42 42 40 39 40 39 36 41 45 43 42 36 27 24 26 25 24
25 24 24 25 25 25 25 25 24 24 24 23 23 24 25 25 25 25 25 25 25 24 24 24 24 24 25 25 25 24 24 26 26 25 25 24 24 24 24 24 23 23 22 22 23 24 25 25 25 25 25 26 26 28 29 30 32 35 38 41 43 45 46 47 47 47 47 47 47 46 45 43 42 42 40 41 43 40 42 46 45 44 42 35 27 23 22 23
25 25 25 25 25 25 25 25 25 25 24 24 24 24 25 26 26 26 26 26 25 24 23 23 23 24 24 25 25 24 23 25 25 24 23 22 22 22 21 21 20 20 21 21 22 23 24 25 25 25 25 25 26 27 28 29 30 32 35 36 37 40 42 44 44 44 44 44 44 45 44 43 43 44 43 44 46 43 42 46 47 46 45 42 35 27 26 25
25 25 25 25 25 25 26 26 25 25 25 25 25 25 25 26 27 27 26 26 25 24 22 22 22 23 24 25 25 23 22 23 23 23 22 20 20 19 18 18 18 18 19 20 21 23 25 26 27 27 27 27 27 27 27 26 27 28 30 29 30 33 34 35 35 35 37 39 40 41 43 43 43 44 45 46 48 45 43 46 48 49 46 44 39 35 35 30
25 25 25 25 25 25 26 26 26 26 26 26 26 26 26 27 27 27 26 26 24 22 21 21 22 23 24 25 25 23 21 21 21 21 20 19 18 17 16 16 16 16 17 19 21 24 26 26 26 26 27 26 26 26 25 25 24 24 25 24 24 25 25 25 25 25 29 32 32 35 42 44 44 45 45 47 49 46 44 46 48 50 49 45 40 39 40 31
24 25 24 24 24 25 26 26 26 26 26 26 26 26 26 27 27 27 26 24 22 21 21 21 22 23 24 24 24 23 21 20 19 18 16 16 16 14 14 14 14 15 17 20 22 25 25 23 23 23 23 23 23 24 23 23 22 20 21 21 20 19 18 17 19 21 22 24 24 30 39 41 41 43 44 46 49 47 45 45 48 50 49 46 42 41 39 32
25 24 24 24 23 24 25 26 26 26 26 26 26 27 27 28 27 26 25 23 22 21 22 22 23 23 24 23 22 21 21 20 19 16 14 14 13 12 12 11 13 16 18 20 23 24 23 21 21 20 20 20 21 22 23 24 22 20 19 19 17 16 14 14 17 18 18 19 20 27 36 35 34 36 38 43 46 49 49 47 48 51 49 48 46 43 41 37
25 24 24 24 23 23 24 25 26 26 26 26 27 27 27 28 27 26 24 23 22 22 23 23 23 23 23 23 21 19 19 20 18 15 14 14 13 11 9 10 13 16 18 21 22 21 21 20 20 19 18 17 19 20 22 23 22 21 20 18 18 17 15 15 17 17 16 16 16 25 34 31 28 29 32 39 40 46 53 51 48 50 51 50 49 46 43 41
26 25 25 24 23 23 23 24 25 25 26 26 27 27 28 28 27 26 24 23 23 23 23 23 23 23 23 22 21 19 17 17 17 13 12 13 12 11 11 12 14 16 18 21 20 19 20 19 18 17 16 16 18 19 20 20 19 19 19 18 18 19 19 17 16 16 17 18 19 25 32 29 27 27 30 36 35 37 50 54 50 50 52 51 50 49 47 45
27 25 25 25 24 23 23 23 24 25 25 26 27 28 28 28 27 26 24 23 23 23 23 23 23 23 21 21 20 19 16 14 14 13 11 11 11 11 12 15 16 17 19 21 20 18 17 16 15 14 14 15 17 18 19 20 19 20 21 20 19 20 20 18 16 16 16 19 21 25 30 29 26 28 32 36 34 32 41 51 54 51 52 52 51 51 50 49
27 26 25 25 24 23 22 23 23 24 25 26 27 28 29 28 27 26 24 23 23 23 23 23 24 23 21 20 19 18 16 14 13 13 12 11 11 12 14 17 18 18 20 20 18 15 14 14 13 12 12 14 15 17 19 21 22 23 24 23 23 22 22 20 18 18 18 19 21 24 27 27 26 29 34 34 33 32 35 44 53 55 54 54 53 53 53 51
27 26 25 25 25 24 22 22 23 24 25 27 28 28 29 28 26 26 24 22 22 23 22 22 23 22 20 18 18 17 15 14 13 11 12 11 11 12 15 18 18 18 19 19 16 13 12 12 12 12 11 12 13 15 17 20 22 23 24 24 24 24 23 22 20 21 22 22 21 22 24 26 26 28 32 32 31 32 33 37 49 57 57 56 55 53 52 53
28 26 25 24 25 24 23 22 22 23 25 27 28 27 28 27 25 25 25 22 22 22 22 21 21 21 20 18 19 17 14 14 13 10 11 12 12 13 16 18 17 16 18 18 14 11 11 11 12 12 11 11 11 12 13 16 20 22 23 23 23 23 22 23 22 22 25 25 24 24 24 26 26 25 27 28 27 28 30 34 42 54 59 57 56 53 50 50
29 27 26 24 24 25 24 22 22 23 25 27 28 27 28 27 25 24 24 22 21 22 22 21 20 18 18 19 19 15 14 14 13 11 12 13 13 15 17 18 17 15 16 16 13 10 9 10 12 12 10 9 10 10 11 14 18 20 21 21 21 22 22 23 23 23 26 28 28 27 26 25 25 23 23 23 23 24 28 32 37 46 56 59 58 55 49 47
31 29 27 24 24 25 25 23 22 23 26 28 28 27 27 26 24 23 23 22 21 21 21 21 19 17 16 18 17 14 14 14 13 12 12 13 14 15 17 18 17 15 15 14 13 11 10 10 11 11 9 10 11 12 13 15 17 18 20 20 20 21 23 24 23 22 25 27 27 27 26 25 24 24 23 22 23 25 27 32 36 40 48 55 58 58 53 48
32 28 27 25 23 25 26 24 23 23 25 27 28 28 28 27 26 24 23 21 20 20 19 19 18 16 15 16 15 14 14 14 14 12 12 13 14 15 16 17 15 14 14 13 11 11 11 9 9 10 11 10 11 13 14 15 16 17 17 16 16 17 20 20 18 18 19 21 24 27 25 23 23 25 27 27 27 28 29 32 35 39 43 47 52 56 58 56
30 27 26 26 24 24 25 25 24 24 26 27 28 28 28 28 27 26 23 21 20 19 19 18 18 16 14 14 14 14 13 12 13 12 11 12 13 14 16 15 13 12 13 12 10 10 11 9 9 10 11 11 11 13 14 15 16 15 15 14 13 14 15 14 13 15 16 18 21 22 21 21 23 27 31 33 32 31 32 32 33 35 39 43 45 47 52 58
30 27 26 26 25 24 25 25 24 24 26 27 27 28 28 27 26 25 22 20 20 19 19 18 18 17 15 14 15 16 13 11 11 12 12 13 13 15 15 13 12 12 12 12 11 12 11 10 9 10 11 11 11 12 13 14 14 13 14 14 14 14 14 14 15 17 16 16 19 18 17 20 23 29 33 33 32 32 33 33 33 33 35 40 44 45 44 50
30 29 27 26 25 25 25 25 23 24 26 27 27 28 27 26 26 23 21 20 19 19 18 16 15 16 15 14 15 15 12 10 10 10 11 12 12 14 14 11 11 11 11 10 11 13 12 10 10 10 11 11 10 10 11 13 13 13 14 16 16 15 15 15 17 18 15 15 17 17 17 19 22 26 29 29 29 32 34 34 33 33 34 38 42 44 44 44
29 28 28 26 23 24 25 24 23 24 25 27 28 28 27 26 25 22 19 19 19 18 16 14 14 13 13 14 14 13 11 11 10 8 8 10 9 11 13 11 10 11 10 10 11 14 12 10 10 9 10 10 9 9 10 10 11 12 15 18 18 17 15 15 16 16 15 14 15 16 17 18 18 20 24 25 27 30 32 33 33 34 35 37 39 42 45 46
27 27 28 26 23 23 25 24 23 23 24 26 28 28 27 26 24 20 18 19 18 17 15 14 13 12 13 14 11 10 11 10 11 9 7 9 9 9 11 10 10 11 11 10 11 14 13 10 8 8 9 10 10 10 10 10 10 10 13 16 15 14 14 14 13 12 12 14 13 13 16 16 14 16 20 22 23 26 29 30 31 32 32 34 36 39 44 47
26 26 27 26 23 22 24 24 23 23 23 25 28 28 27 27 23 19 18 18 17 16 15 14 13 11 14 14 10 9 10 9 11 10 7 8 9 9 10 10 10 12 12 11 11 13 12 9 7 8 10 11 10 9 10 11 10 9 11 13 12 13 13 12 11 10 13 14 12 13 16 16 15 17 20 21 22 23 25 26 28 28 29 31 34 38 43 47
26 26 26 26 24 23 24 24 23 23 23 25 27 27 28 26 22 19 17 16 15 13 12 11 12 12 13 14 11 9 10 9 9 9 8 8 9 10 10 9 10 12 13 13 13 12 11 9 8 9 11 11 10 9 10 10 9 7 8 10 9 10 10 10 11 12 14 13 12 16 18 16 17 18 20 22 23 22 23 26 27 27 28 31 36 39 43 47
27 26 25 25 24 23 24 24 23 23 22 24 27 27 27 24 21 18 17 15 12 11 11 10 11 13 12 12 11 9 9 9 8 8 8 8 9 10 10 9 9 11 13 13 14 13 11 9 9 10 11 11 10 10 9 9 9 7 6 7 7 7 8 9 11 12 14 13 15 18 18 17 17 17 18 21 21 15 16 23 26 28 30 31 36 42 41 43
28 26 24 24 24 24 24 24 23 22 22 24 26 27 25 22 18 16 14 13 10 8 11 11 11 12 11 10 10 9 9 8 6 6 7 8 9 10 10 8 8 10 10 11 14 14 12 9 9 9 10 11 11 10 9 8 8 6 5 7 6 6 7 8 10 12 13 13 15 18 17 17 17 16 16 20 20 11 9 18 23 29 34 28 29 40 42 41
28 26 25 24 24 24 23 22 22 21 21 24 26 25 24 20 16 13 11 11 10 8 10 12 12 12 11 9 9 9 8 6 6 6 6 8 9 10 10 9 10 10 8 9 11 12 11 9 8 8 10 10 10 10 9 8 7 5 5 7 7 6 6 7 8 11 13 12 14 16 16 16 15 14 14 15 17 12 10 18 21 25 34 29 24 33 39 40
27 26 26 25 24 24 22 21 20 20 21 23 25 24 21 18 15 13 9 8 9 10 11 12 12 13 12 10 8 9 8 6 6 7 6 8 9 10 10 10 12 12 10 9 10 10 9 8 7 8 10 9 8 7 8 8 6 5 7 7 7 5 5 6 7 8 11 13 15 16 15 14 13 12 11 10 10 10 12 19 21 25 33 31 26 32 39 39
26 26 26 26 25 22 20 19 19 19 21 23 23 22 19 16 14 12 8 7 9 11 11 12 13 13 12 10 8 8 8 6 5 6 7 8 9 9 10 10 12 12 11 10 11 10 9 8 8 8 10 8 6 5 8 9 7 5 6 6 6 5 5 7 6 4 7 11 14 16 14 13 12 9 9 8 5 5 12 18 22 25 31 32 30 35 39 38
26 26 27 27 23 20 17 17 17 18 21 23 22 19 17 14 11 9 7 7 9 11 12 13 13 13 11 9 7 8 8 6 6 6 6 7 8 9 10 10 11 12 11 10 11 11 11 10 8 8 9 7 6 7 7 8 7 5 2 3 5 6 5 6 6 4 5 9 14 14 12 12 12 8 7 10 9 5 5 12 16 22 29 30 30 34 37 36
26 25 26 24 21 17 16 16 17 19 21 22 20 17 15 11 9 8 6 7 9 10 12 13 13 12 10 8 6 8 8 6 6 6 6 7 8 9 9 11 12 12 11 11 10 11 12 10 8 7 7 6 7 8 6 6 7 4 2 3 6 6 5 7 6 4 5 14 16 11 11 12 11 5 1 9 13 5 4 3 9 19 29 29 25 28 33 35
26 26 24 21 17 16 16 17 18 20 22 21 19 16 14 10 7 7 7 7 8 10 11 13 12 11 10 8 7 8 7 7 6 6 7 7 7 8 9 11 13 12 11 11 10 11 11 10 9 7 6 6 7 8 6 6 7 6 5 7 7 5 5 7 7 5 7 14 14 9 11 13 11 6 1 3 8 8 7 7 7 15 25 29 25 22 27 32
26 26 22 17 14 12 14 17 18 20 20 19 17 16 15 10 5 6 7 8 9 10 11 12 12 11 11 10 8 7 7 7 6 6 6 6 6 7 9 11 11 10 11 11 11 11 10 9 9 7 6 6 6 5 6 7 9 8 7 8 8 7 7 7 7 7 8 11 13 11 12 12 11 9 5 3 2 2 3 7 10 12 18 23 24 22 24 28
26 26 20 15 13 11 13 15 17 20 19 16 16 16 15 10 3 5 7 8 9 11 11 12 12 11 10 9 9 8 7 6 6 5 6 6 6 6 9 11 10 9 9 10 11 10 9 9 9 8 7 7 6 5 6 7 9 9 7 7 8 9 9 9 8 7 9 11 12 12 11 10 9 9 7 4 2 2 3 3 5 8 13 18 22 23 23 25
25 23 16 13 13 12 14 16 18 19 18 15 15 15 15 10 2 4 7 8 10 11 11 12 12 12 11 9 9 9 8 7 6 3 4 7 7 6 8 10 8 8 9 10 10 9 8 9 9 8 7 7 8 8 5 6 8 8 9 8 9 9 10 11 9 8 9 10 10 10 11 10 8 7 7 5 4 3 3 4 4 4 8 13 19 23 25 26
23 19 14 11 11 12 15 17 18 18 17 15 14 14 14 9 4 4 7 9 11 11 12 13 13 13 12 10 9 9 8 7 7 5 4 7 8 7 7 7 6 7 9 10 11 10 10 11 9 8 7 6 9 8 4 7 8 8 10 10 10 9 9 10 10 9 10 9 8 9 10 9 8 6 6 6 5 5 5 6 5 4 5 9 13 18 22 25
20 17 13 10 9 12 16 17 16 17 16 15 13 12 10 6 5 6 8 10 11 12 12 13 13 13 12 10 9 9 8 6 7 7 6 7 7 6 6 5 4 7 8 8 10 10 11 12 10 8 8 6 7 7 2 4 6 7 9 11 10 10 11 12 10 10 11 8 7 8 7 7 8 6 6 6 5 6 7 7 7 7 7 9 10 13 16 19
18 15 13 10 8 11 15 17 16 17 16 15 13 11 7 5 5 7 9 10 11 12 12 13 13 13 12 10 8 8 7 6 6 6 5 5 6 5 4 4 4 6 7 7 9 10 11 12 11 10 10 8 4 3 2 1 3 5 7 10 11 11 13 13 11 11 12 9 8 8 6 4 5 6 7 8 9 9 9 9 10 10 11 12 13 13 15 17
17 14 12 10 10 10 13 15 16 17 17 15 12 8 6 6 8 8 9 10 11 13 14 14 15 14 12 9 7 7 6 6 6 6 5 4 6 5 4 4 5 6 6 6 8 10 11 12 11 10 11 11 7 2 1 1 3 4 6 9 11 12 13 13 11 11 12 10 8 9 8 6 6 7 8 9 11 12 12 12 13 13 14 15 16 17 17 18
17 13 10 8 10 12 13 14 14 16 16 14 11 7 5 5 7 8 8 9 11 13 15 16 16 15 12 9 6 5 5 5 7 7 5 4 5 5 3 4 5 5 4 4 6 9 11 12 12 10 10 11 10 6 2 1 2 3 6 9 11 12 13 13 12 12 11 11 10 10 10 9 8 9 10 10 11 12 13 14 15 16 16 17 18 19 20 21
14 13 11 8 9 12 13 13 14 15 15 13 10 7 5 4 5 8 9 10 12 14 15 16 17 15 12 8 5 4 3 5 7 7 5 4 5 3 1 2 4 3 3 3 5 8 10 12 12 11 10 11 13 11 7 3 3 3 5 8 11 12 12 13 14 13 12 12 12 13 13 12 11 11 12 13 14 15 16 16 17 18 20 21 21 21 21 22
12 11 11 10 10 11 13 13 13 14 14 11 8 6 6 5 5 7 9 11 12 14 15 17 17 15 12 8 5 4 3 4 7 7 5 4 4 2 1 1 2 2 2 3 5 7 9 10 11 12 12 12 13 13 10 5 4 4 4 6 9 11 11 12 13 13 13 12 13 14 15 14 14 14 15 15 17 18 18 19 20 21 22 22 22 22 21 21
13 10 10 11 11 11 13 13 13 14 13 10 6 6 6 6 6 7 8 10 12 14 15 17 17 15 11 7 5 4 2 4 6 6 5 3 2 2 1 1 1 2 2 3 5 7 8 8 8 10 12 12 11 12 11 8 4 4 5 6 7 9 10 11 11 12 12 13 13 14 15 15 15 16 17 18 19 19 20 20 21 21 21 20 19 19 18 18
13 10 9 11 11 12 13 12 12 14 12 8 5 5 5 5 6 7 8 9 11 14 16 17 17 15 10 6 5 3 2 4 6 7 5 3 1 1 1 1 1 2 3 3 4 7 8 7 7 8 9 10 10 10 10 9 6 4 4 5 6 7 8 9 10 11 11 12 14 15 16 16 17 18 19 20 20 20 20 20 20 19 18 18 17 16 16 16
12 11 11 11 11 12 12 12 13 13 11 7 4 4 5 5 6 7 8 9 12 14 16 17 17 15 10 6 5 3 3 4 6 7 6 4 1 1 1 2 3 3 3 3 4 6 7 6 7 7 7 8 9 9 9 8 6 5 4 4 5 6 7 7 8 10 11 12 14 15 16 17 18 19 20 20 20 20 19 20 20 19 18 18 17 16 15 14
12 12 12 12 12 12 12 11 12 12 10 7 4 4 4 4 5 6 7 8 10 13 15 17 17 16 11 6 5 3 3 4 7 8 8 5 3 1 1 3 3 2 2 3 3 5 6 6 7 7 5 5 6 7 8 8 6 6 5 4 4 5 6 6 7 7 9 10 11 12 13 14 15 16 17 18 18 18 19 20 21 20 19 17 15 14 13 13
Wind_Direction
319 321 323 325 326 327 328 327 324 319 315 313 313 312 313 311 307 303 299 296 294 294 294 293 293 292 291 291 292 292 290 288 286 285 283 282 282 281 280 279 277 275 274 273 272 270 267 263 259 256 254 253 252 252 251 250 249 248 248 248 248 247 246 246 245 243 240 234 229 226 223 218 209 210 209 203 215 228 229 228 230 235 237 234 231 231 226 218
317 319 320 323 325 325 326 327 327 324 320 317 315 315 315 314 312 308 304 300 297 296 295 295 295 294 294 295 295 293 291 289 287 286 286 285 284 282 281 280 278 276 274 273 271 269 267 264 260 257 254 252 251 250 249 249 248 248 248 248 248 247 247 246 245 243 240 234 231 229 226 222 214 211 207 197 209 227 225 223 228 233 235 230 228 231 229 223
316 317 318 320 322 323 324 325 327 327 325 321 317 316 316 315 314 312 308 304 300 298 297 297 297 297 298 298 297 294 291 289 288 288 287 287 286 284 282 281 279 277 275 273 271 268 266 264 262 258 255 252 249 248 247 247 247 248 248 249 248 247 247 246 245 242 240 235 230 230 228 225 219 216 213 199 204 226 225 223 226 232 236 232 230 231 228 223
316 316 317 318 320 321 322 323 325 327 327 325 321 318 316 315 314 312 309 304 301 299 298 299 300 300 300 300 298 294 291 290 291 291 290 289 288 286 284 283 280 278 276 273 270 268 266 264 262 259 256 253 250 248 247 247 247 248 247 248 248 246 245 243 243 241 240 237 231 228 227 227 222 219 216 202 201 222 224 227 228 228 234 234 232 228 225 225
315 315 316 317 318 319 320 321 322 324 326 326 324 321 317 315 313 311 306 302 299 297 298 299 300 302 302 301 297 294 293 293 294 293 292 291 290 288 286 284 282 279 276 273 271 269 267 264 262 259 257 254 252 249 247 245 245 246 246 246 245 244 243 241 241 240 238 237 234 229 226 226 223 220 218 206 201 218 223 227 231 229 229 227 228 228 226 227
313 314 314 315 316 317 318 318 319 321 323 325 325 323 320 316 314 311 306 301 297 295 296 297 299 301 302 301 297 296 295 296 295 294 293 292 290 289 287 284 282 279 276 274 272 269 267 264 262 261 259 258 255 252 247 244 243 243 243 243 243 242 242 240 239 239 237 236 234 231 227 226 224 221 221 212 203 216 223 226 230 231 229 224 222 226 228 225
311 311 312 313 313 315 316 316 317 318 320 322 324 324 322 318 315 313 310 305 299 295 293 294 296 297 299 300 298 298 298 297 297 296 294 292 290 288 286 284 281 279 277 275 272 270 268 266 265 264 264 261 259 257 253 250 247 245 242 241 240 239 239 238 237 237 236 236 233 231 228 226 226 222 222 214 202 212 224 227 229 229 230 226 219 219 222 223
310 310 310 310 311 312 313 314 315 315 317 319 321 322 323 321 317 314 312 309 305 298 294 293 294 295 297 299 300 300 300 300 299 297 295 294 292 289 286 283 281 279 277 276 275 273 272 271 270 269 267 264 261 258 255 252 250 247 243 240 238 237 237 236 236 236 235 236 234 233 229 226 227 226 224 214 201 207 222 228 230 229 229 227 222 216 211 215
310 309 309 308 309 310 311 312 312 313 314 316 318 320 321 321 318 315 312 311 308 303 297 294 294 295 297 299 302 303 302 301 300 298 297 295 293 290 286 284 282 280 279 278 278 278 279 278 277 276 273 269 263 259 255 251 249 246 243 242 242 240 239 237 237 237 236 237 236 235 232 228 226 227 225 213 202 205 218 228 232 231 228 225 224 223 213 207
309 309 308 307 307 308 309 310 311 312 312 313 315 317 319 320 319 316 314 312 310 305 300 297 296 296 298 300 303 304 303 301 299 298 296 293 291 287 285 284 283 283 283 284 284 286 286 285 283 281 277 271 265 261 258 254 252 249 246 245 246 245 245 244 242 241 240 238 238 237 234 230 227 227 225 212 205 206 213 226 233 234 232 229 225 225 229 218
309 308 308 307 307 307 308 309 309 310 311 312 313 316 318 319 319 316 315 314 311 307 303 300 299 300 301 302 304 305 304 300 297 297 294 291 287 284 284 285 286 289 291 293 295 296 294 292 290 285 279 272 266 262 259 257 255 254 253 250 247 245 246 248 248 247 245 242 240 239 235 230 227 228 224 213 208 208 211 221 232 235 234 233 229 226 231 227
310 309 309 308 307 306 307 307 308 309 309 310 312 314 316 318 318 317 316 314 311 308 305 304 303 303 304 304 305 306 303 299 297 296 293 289 286 287 288 289 292 297 301 304 305 304 301 298 293 288 283 277 270 262 258 255 253 254 256 254 250 246 244 248 249 247 246 244 241 239 235 230 227 227 226 217 209 208 211 217 227 235 236 235 232 226 227 230
313 312 311 310 309 307 307 307 307 307 308 309 310 313 315 317 317 317 317 315 311 309 307 307 306 307 307 307 307 306 303 300 296 293 289 285 284 287 289 293 301 308 310 311 312 310 306 301 294 289 285 279 268 259 253 249 247 246 248 251 252 249 244 245 247 244 242 242 241 237 233 230 228 228 229 222 210 206 211 215 222 232 237 235 232 227 224 228
316 316 314 312 311 309 308 307 307 307 307 308 310 312 315 317 317 317 317 314 311 309 309 309 310 310 309 309 308 305 303 298 293 288 280 277 282 289 293 299 310 314 314 314 316 314 309 302 294 288 284 277 266 259 252 246 242 238 239 242 242 239 234 234 239 238 235 235 237 236 230 225 227 229 232 228 213 206 210 215 219 228 235 235 233 230 225 227
316 317 317 315 314 311 310 308 307 306 306 307 309 312 315 317 317 317 315 312 311 310 311 312 312 312 310 310 307 303 298 293 290 286 280 282 287 290 289 295 306 314 317 319 320 317 310 303 296 290 284 274 263 257 251 247 245 241 235 232 228 222 215 217 228 230 222 217 221 232 228 220 223 230 232 231 220 208 210 214 217 223 231 234 235 233 228 226
315 316 317 316 315 314 312 310 308 307 306 307 309 312 316 318 317 316 314 311 311 312 313 314 313 313 313 311 307 303 297 290 289 287 280 282 285 284 285 292 299 308 317 321 321 317 312 307 301 294 287 273 260 255 249 243 241 238 230 222 220 216 210 211 220 224 219 213 214 226 229 221 219 228 229 229 226 213 210 213 215 220 227 232 235 235 232 227
316 315 315 315 315 315 314 312 310 308 307 308 310 313 316 318 318 316 314 312 312 312 314 316 315 314 312 309 305 301 295 285 281 279 272 274 282 286 290 296 299 305 314 319 320 319 315 307 299 295 288 275 262 255 248 239 233 234 229 222 220 219 216 212 209 210 213 219 223 226 229 224 219 226 229 227 227 219 211 212 215 219 225 229 232 234 234 231
318 316 314 314 314 315 316 315 312 309 308 309 311 315 317 319 319 316 314 313 313 314 317 317 314 313 312 308 303 298 293 282 269 265 268 276 288 294 297 301 303 306 313 318 319 319 315 303 292 294 289 278 271 261 251 242 235 235 233 228 225 224 222 213 200 197 206 216 226 230 231 228 222 224 228 226 225 220 212 210 212 216 222 225 228 231 234 233
321 318 314 313 314 315 316 316 314 310 308 309 313 316 317 319 319 316 315 316 316 316 317 316 312 312 313 306 299 295 290 283 272 265 271 281 292 298 301 305 305 306 312 318 318 316 316 304 287 287 284 279 281 274 262 251 242 239 239 235 231 228 227 220 203 193 203 211 220 231 236 235 233 230 229 227 224 219 214 210 209 212 218 222 225 228 231 234
324 320 315 313 314 314 315 315 313 310 309 310 313 317 318 320 320 317 316 318 317 316 317 315 313 313 311 302 296 293 285 279 274 266 270 281 290 295 302 308 308 308 315 319 316 312 317 306 283 279 280 276 279 277 269 257 247 241 240 240 237 233 231 229 218 201 204 211 214 222 233 240 242 242 241 237 230 221 215 211 209 209 214 217 220 224 228 232
324 323 316 313 312 312 313 314 312 310 310 312 314 318 319 320 321 318 316 316 315 315 315 314 314 314 307 298 296 292 282 278 270 260 265 277 287 295 306 314 313 313 318 319 314 310 312 303 285 278 277 270 268 266 258 251 246 240 235 234 234 235 233 231 227 214 211 215 214 217 230 241 246 250 253 252 244 230 217 213 211 210 211 213 215 218 222 228
318 320 317 314 312 310 310 311 311 310 311 313 315 318 319 319 320 318 315 314 314 316 317 315 315 313 302 296 297 291 281 279 272 262 264 273 284 297 311 318 314 313 318 318 313 307 308 305 293 280 269 262 265 264 259 256 250 240 233 229 228 233 234 231 229 221 218 222 222 224 233 239 243 248 251 252 249 242 230 218 212 210 211 212 214 217 219 223
313 315 315 314 311 309 308 308 309 310 312 314 316 318 319 321 323 320 316 314 314 318 318 315 312 308 298 295 296 291 283 280 275 268 269 279 288 301 316 319 312 311 317 316 308 303 305 307 297 283 272 267 267 265 261 259 252 240 235 235 233 237 240 238 234 230 228 228 227 228 234 237 238 240 240 242 245 246 244 233 219 211 210 211 213 216 218 221
317 313 312 312 311 308 307 307 308 309 313 316 317 320 323 325 324 320 317 314 315 318 317 313 310 306 300 297 299 299 292 284 282 280 278 287 296 305 317 316 307 310 317 312 303 300 299 296 294 283 278 276 270 266 261 254 247 240 237 242 242 241 244 243 237 237 237 238 236 232 232 234 235 235 236 237 240 243 245 241 230 217 211 212 212 213 216 218
321 317 311 309 308 308 305 304 306 308 313 317 319 322 324 324 323 320 317 314 316 320 318 316 313 310 310 310 308 307 300 285 287 291 288 291 301 308 314 312 305 311 316 312 304 305 302 290 286 282 279 279 273 269 265 256 250 244 244 248 247 241 243 245 243 241 240 244 250 247 239 234 233 233 234 233 235 239 241 243 239 228 220 217 215 213 214 215
319 318 315 308 305 305 303 302 303 305 312 317 319 321 323 324 324 320 316 314 318 321 319 315 312 313 314 311 308 304 294 278 280 289 291 294 301 307 312 309 303 307 315 314 304 304 302 281 273 278 280 281 276 268 262 258 255 250 251 253 251 246 244 248 251 251 249 248 252 255 250 242 237 236 237 235 237 240 241 244 243 236 230 224 219 215 215 217
316 318 318 312 305 303 302 301 301 304 312 317 318 322 324 326 325 320 316 315 318 321 319 312 312 313 308 305 306 299 285 278 281 287 293 296 301 309 312 308 302 304 314 318 308 305 303 283 271 273 277 279 275 268 262 260 259 253 249 249 251 251 249 249 251 254 258 254 249 253 255 252 248 245 246 243 243 245 244 243 242 237 233 229 225 218 214 216
317 319 320 318 309 301 300 300 300 304 310 315 319 323 325 326 324 319 315 316 318 320 316 311 313 314 305 306 311 294 282 286 293 296 302 305 313 318 312 306 306 310 316 319 313 309 307 299 286 272 271 280 281 276 271 269 268 260 247 244 246 246 244 244 246 251 257 254 248 249 254 258 254 247 248 247 245 247 247 245 244 238 232 229 228 222 214 213
320 321 321 320 313 302 298 298 299 303 308 314 320 324 326 326 322 317 316 317 317 317 314 313 317 316 308 311 314 290 283 289 294 301 311 312 319 320 312 310 313 316 318 318 316 311 307 307 297 274 270 279 284 279 272 268 270 263 248 241 239 238 236 237 243 248 251 253 252 248 248 251 251 248 249 246 241 242 243 243 241 235 231 229 229 227 219 215
322 323 321 320 313 302 298 298 299 301 307 315 321 325 327 325 320 318 319 318 316 316 315 312 311 312 310 312 312 291 285 290 297 309 317 315 320 321 318 321 320 322 322 321 321 316 306 300 291 279 274 273 274 278 278 273 270 266 254 243 235 236 235 234 241 243 244 248 248 247 244 242 247 248 245 240 236 235 238 236 229 222 221 220 220 220 216 215
323 324 322 320 313 304 299 299 299 301 308 317 323 327 326 322 319 320 320 317 317 318 312 306 306 310 311 312 309 293 288 298 307 314 314 313 317 320 324 328 327 327 325 324 325 321 312 300 289 283 274 266 270 277 277 270 267 268 260 244 232 233 238 243 248 248 249 247 243 243 241 238 244 242 232 232 230 228 236 231 217 209 209 211 212 208 204 208
325 326 324 321 314 306 301 300 300 304 312 320 325 327 323 320 321 323 321 317 319 319 311 310 312 311 310 310 302 289 288 297 306 309 305 306 313 322 328 330 334 334 329 329 330 324 318 302 283 279 269 266 277 275 257 252 260 266 259 244 236 240 250 257 257 255 251 245 239 238 234 234 241 234 219 219 218 209 223 225 212 202 202 202 203 200 197 200
327 328 326 322 317 308 302 300 300 304 314 322 325 325 322 321 323 323 321 318 317 319 313 313 315 311 310 309 293 283 283 286 299 307 303 308 317 327 331 334 343 347 343 340 334 324 322 307 284 272 259 267 290 280 254 249 256 256 248 233 221 226 243 253 254 250 245 234 228 230 230 230 231 223 213 215 221 215 205 214 215 207 203 199 194 196 197 197
328 329 326 324 319 311 305 300 299 305 318 324 325 323 321 323 322 319 323 322 318 320 318 316 316 312 313 311 295 282 278 278 297 305 306 315 320 327 338 344 347 349 348 342 335 332 329 313 291 268 259 275 311 294 253 247 252 249 246 230 213 211 224 243 248 242 236 229 225 229 230 221 213 214 215 214 228 222 192 199 212 213 208 203 196 196 197 197
329 328 326 324 320 315 307 299 299 311 323 325 323 321 323 324 320 318 325 329 321 320 320 318 316 315 316 315 301 283 275 276 293 302 312 321 321 327 338 344 345 347 345 334 329 333 333 319 303 286 282 294 316 287 250 242 236 231 235 221 211 218 230 247 254 255 250 230 218 218 213 204 202 212 223 203 175 179 175 185 203 210 209 206 199 195 196 203
328 328 327 325 321 315 306 298 305 319 325 324 321 321 325 324 316 315 322 325 323 322 320 317 315 316 319 319 301 281 275 276 287 300 314 317 319 323 326 333 342 345 340 328 323 322 323 327 320 301 295 291 277 275 265 244 225 215 218 197 205 223 246 256 255 279 261 199 184 189 187 191 194 192 216 194 154 112 153 181 200 206 205 205 202 200 202 211
327 328 329 325 320 315 310 311 320 326 327 325 322 322 326 321 308 306 311 313 318 321 318 315 316 317 319 317 293 272 268 270 278 291 297 296 310 320 320 327 335 339 334 330 327 319 316 325 327 307 297 285 271 276 268 230 212 198 182 195 211 228 251 253 248 270 227 179 168 172 176 186 189 169 255 206 189 218 286 228 199 193 197 203 207 209 212 216
327 329 330 323 315 313 313 317 324 328 328 326 322 321 326 323 301 295 307 315 320 323 318 316 319 320 316 310 290 272 264 261 268 283 286 287 305 318 319 325 330 335 333 330 331 325 317 319 321 312 303 289 278 275 256 222 203 189 190 201 208 216 232 241 240 254 223 183 173 175 173 179 185 179 305 233 203 227 251 250 227 191 194 206 214 218 219 219
326 329 330 318 307 305 306 312 323 328 329 327 323 323 331 334 301 284 308 324 326 325 320 319 323 322 316 310 297 280 265 255 260 274 281 291 310 319 322 330 334 338 337 333 333 328 320 317 315 310 299 289 279 262 242 223 206 197 201 202 195 189 201 226 232 242 239 203 184 183 182 182 182 182 194 199 191 246 243 248 247 216 205 212 218 222 221 219
328 330 330 316 305 302 304 315 327 330 331 332 327 326 334 341 300 275 307 323 326 326 324 325 326 323 317 310 295 278 261 248 250 268 288 298 304 312 321 331 339 343 342 341 339 334 326 319 313 303 289 285 286 264 236 229 216 206 208 203 193 188 190 208 223 234 236 214 193 189 191 189 187 191 203 210 222 314 347 328 278 240 228 224 225 227 226 223
330 331 330 316 308 311 315 323 332 333 334 334 330 328 330 332 295 278 313 325 329 331 330 329 328 326 323 312 294 277 261 245 236 254 312 306 293 298 316 328 340 348 350 349 348 349 347 336 325 313 297 286 291 284 246 233 230 213 206 202 199 200 197 202 216 224 222 213 206 207 200 191 190 201 218 234 247 261 293 322 322 279 245 236 232 230 230 232
331 331 328 313 307 313 319 326 334 337 336 333 330 326 321 320 315 321 332 333 333 335 335 332 331 329 325 313 294 278 266 249 228 222 275 294 292 302 315 319 336 351 353 354 355 360 1 355 347 333 314 288 289 293 247 218 229 215 203 200 203 213 212 206 210 222 227 227 228 227 214 203 204 210 219 230 243 253 266 282 285 271 255 247 239 233 232 234
330 329 323 310 307 313 318 326 337 341 336 332 331 323 312 314 327 333 339 336 333 336 337 335 334 329 322 313 292 277 267 248 232 232 255 281 295 305 310 307 336 358 354 353 358 4 5 4 5 360 344 315 299 311 300 206 224 221 206 200 202 212 215 211 209 217 229 242 254 250 240 229 229 236 244 248 259 267 269 270 264 257 255 249 241 237 236 236
328 330 323 310 305 312 318 327 340 344 338 335 335 325 312 318 329 336 341 335 333 339 339 337 336 331 325 314 291 276 265 243 231 236 253 284 300 303 307 309 334 359 357 356 6 12 13 12 14 16 12 7 354 337 348 229 231 224 205 198 201 204 206 209 211 212 220 241 275 275 270 271 258 258 270 279 282 278 273 272 271 268 265 258 250 244 239 237
326 328 324 311 303 311 322 329 338 343 338 334 332 321 308 317 327 337 338 333 335 341 342 341 341 337 332 320 296 280 265 241 229 227 238 279 306 309 313 312 325 351 359 4 17 21 21 21 22 26 28 29 29 10 286 254 243 226 197 191 197 199 199 204 208 211 218 230 256 270 280 295 286 269 272 279 280 278 279 280 279 275 269 263 256 250 246 243
322 323 323 314 304 313 324 328 335 340 336 330 324 311 297 309 317 323 330 338 343 342 342 344 343 341 336 328 309 290 267 237 221 219 236 281 309 312 309 303 316 345 2 8 26 31 29 28 28 28 35 41 41 37 48 148 201 220 200 189 192 196 200 206 211 216 223 226 234 249 264 276 281 276 272 271 272 276 279 281 281 280 275 269 264 258 253 249
318 315 315 309 296 305 316 322 332 339 334 328 321 307 299 301 307 318 333 347 348 343 343 345 345 344 339 332 318 297 266 225 213 216 237 281 300 308 319 306 314 343 17 20 32 41 38 33 29 27 32 43 46 46 53 88 136 175 193 194 196 201 207 214 218 223 228 230 230 234 243 256 273 281 276 269 268 273 278 281 282 281 278 275 273 269 264 260
313 305 303 301 294 302 312 319 331 337 333 328 319 303 302 311 319 329 340 348 348 344 344 345 346 347 344 337 322 300 260 210 206 211 229 271 296 316 53 34 332 353 41 41 39 47 46 37 30 28 29 34 42 48 53 67 124 151 165 185 200 211 217 218 217 218 222 226 230 233 239 252 268 277 277 273 271 272 276 280 281 280 279 278 277 274 271 267
310 300 290 289 291 300 310 319 331 336 334 331 316 296 300 313 325 334 343 347 346 343 344 346 349 350 347 341 326 304 260 208 198 199 216 255 299 324 43 63 13 22 57 62 48 49 50 42 35 32 31 31 36 45 53 59 91 146 159 170 189 205 214 215 214 215 218 225 233 238 244 256 266 271 274 275 275 277 281 285 285 283 281 281 280 278 275 273
306 297 283 279 284 294 304 316 329 333 334 332 310 291 298 310 319 330 344 348 344 342 344 348 352 352 349 338 320 295 248 210 194 193 209 230 284 323 352 25 7 19 54 71 58 53 52 46 42 42 37 34 35 42 53 60 70 107 148 169 181 194 207 215 220 223 225 230 237 245 254 263 268 270 273 276 279 281 285 286 285 283 282 283 281 279 277 278
302 291 281 274 276 287 299 314 327 330 332 330 304 281 289 302 313 326 344 348 343 343 346 349 353 354 351 340 323 294 233 207 193 193 203 211 227 309 360 17 351 351 36 62 63 60 57 51 51 50 39 32 36 43 51 58 68 90 115 148 168 182 201 219 230 235 238 240 244 251 259 264 268 270 274 277 278 280 280 279 278 278 280 279 278 278 280 279
298 286 279 274 273 284 298 314 325 327 328 323 298 273 277 294 308 321 339 346 342 343 347 350 353 355 356 351 337 312 248 213 197 192 195 198 202 224 13 5 337 323 13 42 58 66 63 58 59 58 41 20 32 46 48 51 67 88 104 127 148 166 185 205 221 234 243 248 251 256 261 265 268 270 272 273 274 275 276 276 277 279 279 278 277 279 283 281
Height
5819 5818 5817 5815 5813 5812 5810 5809 5807 5806 5804 5803 5802 5800 5799 5798 5797 5796 5795 5794 5793 5792 5791 5791 5790 5789 5789 5788 5788 5786 5785 5784 5783 5783 5782 5782 5781 5780 5779 5779 5778 5778 5777 5777 5777 5777 5777 5777 5777 5777 5778 5779 5779 5780 5780 5780 5781 5781 5781 5781 5783 5785 5788 5791 5793 5795 5797 5801 5802 5803 5803 5804 5804 5804 5806 5808 5808 5808 5809 5811 5813 5815 5817 5820 5821 5821 5823 5827
5818 5816 5815 5814 5812 5810 5809 5807 5806 5804 5802 5801 5800 5798 5797 5796 5794 5793 5792 5792 5791 5790 5789 5788 5787 5787 5786 5786 5785 5783 5782 5781 5780 5780 5779 5778 5778 5777 5776 5775 5775 5774 5774 5773 5773 5773 5772 5772 5773 5774 5774 5775 5775 5776 5776 5776 5776 5776 5777 5778 5778 5782 5785 5787 5789 5791 5793 5796 5798 5799 5800 5802 5802 5802 5803 5805 5806 5805 5806 5808 5810 5812 5815 5818 5819 5819 5822 5826
5816 5815 5813 5812 5810 5809 5807 5806 5804 5802 5801 5799 5798 5796 5795 5793 5792 5791 5790 5789 5788 5787 5786 5785 5785 5784 5783 5783 5781 5780 5779 5778 5777 5776 5776 5775 5774 5774 5773 5772 5771 5771 5770 5770 5769 5768 5768 5769 5769 5769 5770 5770 5771 5771 5771 5772 5772 5772 5773 5773 5775 5779 5781 5783 5785 5787 5789 5791 5794 5795 5797 5799 5800 5801 5802 5803 5804 5802 5803 5805 5807 5809 5812 5815 5817 5819 5821 5824
5815 5813 5812 5810 5809 5807 5806 5804 5802 5801 5799 5797 5796 5794 5793 5791 5790 5789 5788 5786 5785 5785 5784 5783 5782 5781 5780 5780 5778 5777 5776 5775 5774 5773 5772 5772 5771 5770 5769 5768 5768 5767 5766 5766 5765 5764 5764 5765 5764 5765 5765 5765 5766 5766 5767 5768 5768 5768 5769 5769 5772 5776 5776 5778 5780 5782 5784 5786 5789 5791 5793 5795 5797 5798 5799 5801 5801 5800 5801 5803 5804 5806 5808 5811 5814 5817 5819 5821
5813 5811 5810 5808 5807 5805 5804 5802 5801 5799 5797 5796 5794 5792 5791 5789 5788 5787 5785 5784 5783 5782 5781 5780 5779 5778 5778 5777 5775 5774 5773 5772 5771 5770 5769 5768 5767 5766 5765 5765 5764 5763 5762 5762 5761 5761 5761 5760 5760 5760 5760 5760 5761 5762 5763 5763 5763 5763 5764 5765 5768 5770 5770 5773 5775 5776 5778 5780 5783 5787 5789 5791 5793 5795 5797 5799 5798 5797 5799 5800 5799 5802 5805 5808 5811 5814 5816 5818
5811 5809 5808 5806 5805 5803 5802 5800 5799 5797 5795 5794 5792 5791 5789 5787 5786 5785 5783 5782 5780 5779 5779 5778 5777 5776 5775 5774 5772 5771 5770 5768 5767 5766 5765 5765 5763 5763 5762 5761 5760 5759 5758 5758 5757 5757 5756 5755 5755 5755 5756 5756 5757 5757 5757 5757 5757 5758 5759 5760 5762 5764 5765 5768 5769 5770 5772 5775 5778 5782 5785 5787 5790 5792 5795 5796 5795 5795 5796 5796 5795 5798 5802 5804 5806 5809 5812 5815
5808 5807 5806 5804 5803 5801 5800 5798 5797 5795 5794 5792 5790 5789 5787 5785 5784 5782 5781 5779 5778 5777 5776 5775 5774 5773 5772 5771 5769 5768 5767 5765 5764 5763 5762 5761 5760 5759 5759 5757 5756 5755 5755 5754 5753 5752 5751 5751 5751 5752 5752 5752 5753 5752 5752 5752 5753 5754 5754 5754 5756 5758 5760 5761 5763 5765 5767 5770 5773 5776 5780 5783 5786 5789 5792 5793 5793 5792 5793 5793 5793 5796 5799 5803 5804 5805 5808 5811
5806 5805 5803 5802 5800 5799 5798 5796 5795 5793 5791 5790 5788 5787 5785 5783 5781 5780 5778 5777 5775 5774 5773 5772 5771 5770 5769 5768 5766 5765 5764 5762 5761 5760 5758 5757 5757 5756 5755 5754 5753 5752 5751 5750 5749 5748 5747 5748 5748 5748 5747 5747 5748 5747 5747 5748 5748 5750 5749 5748 5750 5752 5753 5755 5757 5760 5762 5764 5767 5771 5775 5779 5782 5785 5789 5791 5790 5789 5789 5790 5792 5794 5797 5801 5803 5804 5805 5807
5804 5803 5801 5800 5798 5797 5795 5794 5792 5791 5789 5788 5786 5784 5783 5781 5779 5777 5776 5774 5773 5771 5770 5769 5768 5767 5766 5765 5764 5762 5760 5759 5757 5756 5755 5754 5753 5752 5751 5750 5749 5748 5747 5747 5746 5745 5744 5744 5744 5744 5744 5743 5743 5742 5742 5743 5743 5745 5744 5743 5746 5747 5748 5751 5754 5756 5758 5761 5763 5767 5771 5775 5779 5782 5786 5788 5787 5786 5786 5786 5788 5791 5794 5798 5801 5802 5803 5804
5802 5801 5799 5797 5796 5794 5793 5792 5790 5788 5787 5785 5784 5782 5780 5779 5777 5775 5773 5771 5770 5768 5767 5766 5765 5764 5763 5762 5761 5759 5757 5755 5754 5753 5752 5751 5750 5749 5748 5747 5746 5745 5744 5744 5743 5742 5741 5741 5741 5741 5740 5739 5739 5738 5738 5739 5739 5739 5739 5741 5744 5744 5746 5748 5751 5753 5755 5757 5759 5762 5766 5771 5775 5778 5781 5783 5783 5784 5784 5784 5785 5787 5791 5795 5798 5801 5803 5802
5800 5798 5797 5795 5794 5792 5791 5789 5788 5786 5784 5783 5781 5780 5778 5776 5774 5772 5771 5769 5767 5766 5764 5763 5762 5761 5760 5759 5758 5756 5754 5752 5751 5751 5749 5748 5747 5746 5745 5744 5743 5742 5742 5741 5740 5739 5738 5737 5737 5736 5736 5735 5735 5735 5735 5735 5736 5735 5736 5739 5740 5742 5744 5746 5749 5750 5750 5752 5755 5757 5760 5765 5770 5773 5776 5779 5781 5782 5782 5783 5783 5783 5786 5791 5796 5799 5799 5800
5797 5795 5794 5793 5791 5790 5788 5787 5785 5784 5782 5780 5779 5777 5775 5773 5772 5770 5768 5766 5764 5763 5762 5761 5760 5758 5757 5755 5754 5754 5752 5749 5748 5747 5746 5745 5744 5743 5743 5742 5741 5740 5739 5738 5737 5736 5735 5733 5733 5732 5731 5731 5732 5732 5732 5732 5732 5733 5733 5734 5736 5739 5741 5743 5744 5745 5745 5748 5750 5751 5754 5760 5764 5767 5769 5772 5777 5780 5780 5781 5781 5781 5783 5788 5792 5795 5795 5797
5795 5793 5791 5790 5789 5787 5786 5784 5783 5781 5779 5778 5776 5775 5773 5771 5769 5767 5765 5763 5762 5761 5759 5758 5757 5756 5754 5752 5751 5750 5749 5747 5745 5744 5744 5743 5742 5742 5741 5739 5739 5738 5737 5736 5735 5734 5732 5731 5729 5728 5728 5728 5728 5728 5729 5729 5729 5730 5730 5731 5733 5735 5738 5740 5740 5740 5742 5744 5745 5746 5750 5755 5758 5759 5758 5762 5772 5776 5776 5778 5779 5778 5780 5784 5788 5791 5793 5796
5792 5791 5789 5788 5786 5785 5783 5782 5780 5779 5777 5775 5774 5772 5770 5769 5767 5765 5763 5761 5760 5758 5757 5756 5754 5753 5751 5750 5748 5747 5746 5745 5743 5742 5742 5741 5740 5739 5738 5737 5737 5736 5735 5734 5733 5731 5729 5728 5727 5725 5725 5725 5725 5725 5725 5726 5727 5727 5728 5729 5731 5732 5734 5736 5736 5737 5739 5739 5740 5741 5745 5750 5752 5751 5750 5756 5766 5771 5772 5774 5776 5776 5777 5780 5783 5786 5790 5793
5790 5788 5787 5785 5784 5782 5781 5779 5778 5776 5775 5773 5771 5770 5768 5766 5764 5762 5760 5759 5757 5756 5754 5753 5751 5750 5748 5747 5746 5745 5743 5742 5741 5741 5740 5739 5738 5737 5737 5736 5735 5734 5732 5731 5730 5728 5727 5725 5724 5723 5722 5722 5722 5722 5722 5723 5725 5725 5726 5727 5727 5729 5730 5732 5732 5735 5735 5735 5736 5736 5739 5744 5745 5745 5746 5752 5760 5765 5767 5770 5772 5773 5774 5775 5778 5781 5786 5790
5788 5786 5784 5783 5781 5780 5778 5777 5775 5774 5772 5770 5768 5767 5766 5764 5761 5759 5758 5756 5755 5753 5752 5750 5749 5747 5745 5744 5743 5742 5740 5739 5738 5738 5737 5736 5736 5736 5735 5735 5734 5732 5731 5729 5727 5726 5724 5722 5721 5720 5720 5719 5719 5719 5720 5721 5722 5722 5723 5723 5724 5726 5727 5729 5731 5731 5731 5731 5732 5732 5734 5738 5740 5740 5743 5748 5753 5759 5764 5767 5769 5770 5771 5773 5773 5776 5780 5785
5785 5784 5782 5780 5779 5777 5776 5774 5773 5771 5770 5768 5766 5764 5763 5761 5759 5757 5755 5754 5752 5751 5749 5747 5746 5745 5743 5742 5740 5739 5738 5737 5736 5736 5736 5735 5734 5734 5733 5732 5731 5730 5729 5727 5725 5723 5722 5720 5719 5718 5717 5717 5716 5717 5717 5718 5718 5718 5719 5720 5721 5723 5725 5727 5729 5728 5727 5728 5728 5729 5731 5735 5737 5738 5741 5745 5749 5754 5759 5763 5766 5768 5770 5770 5770 5772 5774 5779
5783 5782 5780 5778 5776 5775 5773 5772 5771 5769 5767 5765 5764 5762 5760 5759 5756 5754 5753 5751 5750 5748 5746 5745 5743 5742 5741 5739 5737 5736 5735 5735 5735 5734 5734 5733 5732 5731 5731 5730 5729 5728 5727 5725 5723 5722 5720 5718 5717 5716 5715 5714 5714 5714 5715 5716 5716 5716 5717 5718 5719 5720 5722 5724 5725 5725 5724 5725 5725 5727 5729 5732 5734 5735 5738 5741 5744 5749 5754 5757 5761 5764 5767 5768 5768 5768 5769 5773
5781 5779 5777 5776 5774 5773 5771 5770 5768 5767 5765 5763 5761 5760 5757 5756 5754 5752 5750 5749 5747 5745 5744 5743 5740 5739 5738 5736 5735 5734 5733 5733 5733 5732 5732 5731 5730 5730 5729 5728 5727 5726 5724 5723 5721 5720 5718 5716 5715 5714 5714 5713 5713 5713 5714 5714 5714 5714 5715 5716 5717 5718 5719 5721 5721 5722 5722 5723 5724 5725 5727 5730 5731 5733 5735 5737 5739 5744 5748 5752 5755 5758 5762 5764 5765 5765 5766 5769
5778 5777 5775 5773 5772 5770 5769 5767 5766 5765 5763 5761 5759 5758 5755 5753 5752 5749 5747 5747 5745 5743 5742 5740 5738 5737 5735 5734 5733 5732 5731 5731 5731 5730 5729 5729 5728 5728 5727 5726 5725 5723 5722 5720 5719 5718 5716 5714 5713 5712 5712 5712 5711 5712 5712 5713 5712 5713 5713 5714 5715 5716 5717 5717 5718 5720 5719 5721 5722 5723 5724 5727 5729 5731 5733 5734 5737 5741 5745 5747 5749 5752 5756 5759 5761 5762 5763 5766
5776 5774 5772 5771 5769 5767 5766 5765 5764 5762 5760 5758 5757 5755 5753 5751 5750 5747 5745 5744 5743 5741 5740 5738 5736 5735 5733 5731 5731 5730 5729 5729 5729 5729 5728 5727 5727 5726 5725 5724 5723 5721 5720 5719 5717 5716 5714 5713 5712 5711 5711 5711 5710 5710 5711 5711 5711 5711 5711 5711 5712 5713 5713 5714 5715 5716 5717 5718 5720 5721 5722 5724 5726 5728 5730 5732 5735 5738 5740 5743 5745 5747 5750 5753 5756 5758 5760 5763
5773 5772 5770 5768 5767 5765 5764 5762 5761 5760 5758 5756 5754 5753 5751 5749 5748 5746 5744 5742 5741 5739 5737 5735 5734 5733 5731 5729 5729 5728 5727 5727 5727 5727 5726 5725 5725 5724 5723 5721 5720 5719 5718 5717 5716 5714 5713 5712 5710 5710 5710 5709 5709 5709 5709 5709 5709 5709 5708 5709 5710 5710 5710 5711 5712 5714 5715 5717 5718 5719 5721 5723 5724 5726 5727 5728 5729 5731 5733 5735 5738 5741 5744 5748 5752 5755 5757 5759
5770 5769 5767 5765 5764 5762 5761 5760 5759 5758 5756 5754 5752 5750 5748 5746 5744 5743 5741 5740 5739 5737 5735 5733 5732 5731 5730 5728 5727 5726 5725 5725 5724 5724 5724 5723 5722 5721 5720 5719 5718 5717 5717 5715 5714 5713 5712 5710 5709 5708 5708 5708 5708 5707 5707 5707 5707 5707 5707 5708 5709 5709 5709 5710 5712 5712 5714 5716 5717 5717 5719 5721 5722 5722 5723 5723 5723 5724 5725 5726 5730 5734 5738 5742 5747 5751 5753 5755
5767 5766 5764 5762 5761 5760 5758 5757 5756 5755 5754 5752 5750 5747 5745 5743 5741 5739 5738 5737 5736 5734 5732 5730 5729 5728 5727 5726 5724 5724 5724 5723 5722 5722 5722 5721 5720 5720 5719 5717 5716 5716 5715 5714 5713 5711 5710 5709 5708 5707 5707 5706 5706 5705 5705 5705 5705 5706 5706 5707 5707 5708 5708 5709 5710 5710 5711 5713 5713 5715 5717 5719 5719 5718 5718 5718 5719 5719 5719 5721 5726 5731 5735 5738 5742 5746 5748 5751
5764 5763 5762 5760 5758 5757 5756 5754 5753 5752 5751 5749 5747 5745 5743 5741 5739 5737 5735 5734 5733 5731 5729 5727 5726 5725 5724 5723 5722 5721 5721 5721 5720 5720 5719 5719 5718 5717 5717 5716 5715 5714 5713 5712 5711 5709 5709 5707 5706 5706 5705 5705 5704 5704 5703 5703 5704 5704 5704 5705 5705 5706 5706 5707 5707 5707 5709 5710 5710 5712 5715 5716 5715 5713 5712 5714 5716 5716 5716 5719 5725 5730 5734 5737 5739 5742 5745 5747
5762 5760 5759 5758 5755 5754 5753 5752 5751 5750 5748 5747 5745 5743 5741 5739 5737 5735 5733 5732 5730 5729 5727 5726 5724 5723 5722 5721 5721 5720 5719 5719 5719 5719 5717 5717 5716 5715 5715 5714 5713 5713 5712 5711 5709 5708 5707 5706 5705 5704 5704 5703 5703 5702 5702 5701 5702 5703 5703 5702 5702 5703 5704 5705 5705 5705 5707 5708 5708 5709 5710 5712 5712 5709 5709 5712 5713 5712 5713 5717 5722 5727 5730 5733 5737 5740 5743 5744
5760 5758 5757 5755 5754 5752 5750 5749 5748 5747 5746 5744 5742 5740 5738 5736 5735 5733 5731 5730 5728 5726 5725 5724 5723 5722 5721 5720 5719 5718 5717 5717 5717 5717 5716 5715 5715 5714 5713 5712 5711 5711 5710 5709 5707 5706 5705 5704 5703 5703 5702 5702 5701 5701 5700 5700 5700 5700 5700 5700 5700 5701 5702 5703 5703 5704 5705 5706 5707 5707 5707 5709 5709 5708 5708 5710 5710 5709 5710 5713 5717 5721 5725 5729 5733 5737 5739 5741
5758 5756 5754 5753 5752 5750 5748 5747 5746 5745 5744 5742 5740 5738 5736 5734 5732 5731 5729 5727 5726 5724 5723 5722 5722 5721 5719 5718 5718 5717 5716 5715 5714 5715 5714 5713 5713 5712 5711 5710 5710 5709 5708 5708 5706 5704 5703 5702 5701 5701 5701 5700 5700 5699 5699 5698 5698 5698 5697 5697 5698 5699 5700 5701 5701 5702 5703 5703 5705 5706 5706 5706 5707 5706 5706 5706 5706 5706 5708 5711 5714 5717 5721 5725 5729 5732 5735 5736
5756 5754 5752 5750 5749 5748 5746 5745 5744 5743 5741 5740 5738 5735 5733 5731 5730 5728 5727 5726 5724 5723 5721 5720 5720 5719 5717 5716 5716 5715 5714 5714 5713 5712 5713 5712 5711 5710 5710 5709 5708 5707 5706 5706 5705 5703 5702 5701 5700 5700 5699 5699 5698 5698 5697 5696 5696 5696 5695 5696 5697 5697 5698 5699 5700 5701 5700 5701 5703 5704 5703 5704 5704 5704 5703 5704 5704 5705 5707 5709 5711 5713 5717 5721 5725 5728 5730 5732
5754 5752 5750 5748 5746 5745 5744 5743 5742 5741 5739 5738 5735 5733 5731 5729 5727 5726 5725 5724 5722 5721 5720 5719 5718 5717 5716 5715 5714 5713 5712 5712 5712 5711 5711 5710 5709 5709 5708 5708 5707 5706 5704 5703 5703 5701 5700 5699 5699 5698 5697 5697 5696 5696 5696 5695 5694 5694 5694 5695 5695 5696 5697 5697 5698 5698 5698 5699 5701 5702 5701 5701 5702 5701 5702 5702 5702 5704 5705 5705 5707 5711 5713 5716 5719 5722 5724 5728
5751 5750 5748 5746 5744 5743 5742 5741 5740 5738 5737 5735 5733 5731 5729 5727 5725 5724 5723 5721 5720 5719 5718 5717 5716 5715 5715 5714 5713 5712 5711 5711 5711 5710 5709 5709 5708 5707 5707 5707 5706 5705 5703 5701 5700 5699 5698 5698 5697 5696 5695 5695 5695 5695 5694 5694 5693 5693 5694 5694 5694 5695 5695 5696 5696 5696 5696 5698 5699 5699 5699 5700 5699 5699 5700 5700 5702 5704 5704 5702 5705 5709 5710 5712 5714 5716 5719 5724
5749 5747 5746 5744 5742 5741 5740 5738 5737 5736 5735 5733 5731 5729 5727 5725 5724 5722 5721 5719 5718 5718 5716 5715 5715 5714 5713 5713 5712 5711 5710 5710 5710 5709 5708 5708 5707 5706 5706 5706 5705 5704 5702 5701 5699 5697 5696 5696 5695 5694 5694 5693 5693 5693 5693 5693 5692 5692 5693 5694 5694 5694 5694 5694 5694 5694 5695 5696 5697 5697 5697 5698 5697 5698 5699 5699 5701 5703 5703 5702 5703 5706 5708 5709 5711 5713 5717 5721
5747 5745 5743 5741 5740 5738 5738 5737 5736 5734 5733 5731 5728 5727 5725 5723 5722 5720 5719 5717 5717 5717 5715 5714 5714 5713 5712 5711 5710 5709 5709 5709 5709 5708 5708 5707 5706 5705 5705 5704 5704 5703 5701 5700 5698 5696 5695 5694 5694 5693 5692 5691 5691 5691 5691 5691 5692 5692 5692 5692 5693 5693 5693 5693 5693 5693 5693 5695 5696 5695 5695 5696 5697 5697 5699 5700 5701 5702 5703 5702 5703 5705 5705 5706 5708 5712 5715 5717
5744 5743 5740 5739 5737 5736 5735 5735 5734 5733 5731 5729 5727 5725 5723 5721 5720 5718 5718 5716 5715 5715 5714 5713 5712 5711 5710 5710 5709 5708 5708 5708 5708 5707 5707 5706 5705 5704 5703 5703 5702 5701 5700 5699 5697 5696 5694 5693 5692 5692 5690 5690 5690 5690 5689 5690 5691 5691 5691 5691 5692 5692 5692 5692 5692 5692 5692 5693 5694 5693 5694 5695 5696 5697 5699 5700 5701 5701 5702 5702 5702 5703 5703 5704 5707 5710 5713 5714
5742 5740 5738 5736 5735 5734 5733 5733 5732 5730 5729 5727 5725 5724 5722 5720 5718 5717 5716 5716 5714 5713 5713 5711 5710 5709 5709 5708 5708 5707 5707 5707 5707 5706 5706 5705 5704 5703 5702 5702 5701 5700 5699 5697 5696 5695 5693 5692 5691 5691 5690 5689 5689 5689 5688 5688 5689 5690 5690 5691 5691 5692 5691 5691 5691 5691 5691 5691 5692 5692 5694 5695 5696 5697 5698 5700 5701 5700 5701 5700 5700 5701 5702 5703 5706 5709 5711 5713
5741 5739 5736 5733 5732 5731 5731 5731 5730 5729 5727 5725 5723 5722 5721 5719 5717 5716 5715 5714 5713 5713 5712 5710 5709 5708 5707 5707 5707 5706 5706 5706 5706 5705 5705 5704 5703 5702 5701 5701 5700 5699 5698 5697 5695 5694 5692 5691 5690 5690 5689 5689 5688 5687 5687 5687 5688 5689 5689 5690 5691 5691 5691 5691 5691 5691 5691 5690 5690 5692 5694 5695 5695 5696 5697 5699 5699 5698 5698 5699 5698 5699 5702 5704 5707 5709 5711 5712
5738 5737 5734 5732 5730 5729 5729 5728 5728 5727 5725 5723 5721 5721 5720 5717 5716 5715 5714 5713 5713 5712 5711 5709 5708 5707 5706 5706 5705 5705 5705 5705 5704 5704 5703 5703 5702 5701 5700 5700 5699 5698 5697 5696 5695 5693 5691 5690 5690 5689 5688 5687 5687 5686 5686 5686 5687 5688 5689 5689 5690 5690 5691 5690 5691 5691 5691 5689 5690 5692 5694 5695 5695 5696 5697 5698 5698 5696 5696 5698 5698 5699 5701 5704 5707 5709 5711 5712
5736 5735 5733 5730 5729 5728 5727 5726 5726 5725 5724 5722 5719 5719 5718 5716 5714 5713 5713 5712 5712 5711 5709 5708 5707 5706 5705 5704 5704 5703 5703 5703 5703 5703 5702 5702 5701 5701 5700 5699 5698 5697 5696 5695 5694 5692 5690 5689 5688 5687 5687 5686 5686 5685 5685 5685 5686 5688 5688 5688 5689 5690 5690 5690 5690 5691 5691 5690 5690 5692 5694 5694 5694 5695 5696 5697 5697 5697 5696 5697 5697 5699 5702 5704 5706 5708 5710 5712
5734 5733 5732 5730 5728 5728 5727 5726 5725 5724 5722 5720 5718 5717 5716 5715 5713 5712 5711 5711 5710 5709 5708 5707 5706 5705 5703 5703 5702 5702 5702 5702 5702 5702 5701 5701 5700 5700 5699 5698 5697 5696 5695 5694 5693 5691 5690 5688 5687 5686 5686 5685 5684 5684 5684 5684 5685 5686 5687 5687 5689 5690 5690 5690 5690 5691 5691 5691 5690 5691 5693 5694 5694 5694 5695 5696 5696 5696 5696 5696 5697 5699 5702 5704 5706 5708 5710 5711
5732 5730 5730 5728 5727 5728 5727 5726 5724 5723 5721 5719 5717 5715 5714 5713 5713 5712 5711 5710 5709 5708 5707 5705 5704 5703 5702 5701 5701 5700 5700 5700 5701 5701 5700 5700 5699 5699 5698 5697 5696 5696 5695 5693 5692 5690 5689 5687 5686 5685 5685 5684 5683 5683 5683 5683 5684 5685 5686 5687 5688 5689 5689 5689 5690 5691 5691 5691 5690 5691 5692 5694 5694 5694 5695 5696 5696 5696 5696 5696 5696 5698 5701 5704 5706 5708 5710 5712
5731 5729 5728 5726 5725 5725 5725 5724 5723 5721 5719 5718 5716 5714 5713 5712 5712 5711 5710 5709 5708 5707 5706 5704 5703 5702 5701 5700 5699 5699 5699 5699 5700 5700 5700 5699 5698 5698 5698 5696 5696 5695 5694 5693 5692 5690 5688 5686 5685 5684 5683 5683 5682 5682 5682 5682 5683 5684 5685 5686 5687 5688 5689 5689 5690 5691 5691 5690 5691 5691 5692 5693 5694 5694 5695 5696 5696 5696 5696 5697 5697 5699 5701 5702 5705 5707 5709 5711
5729 5727 5726 5725 5724 5724 5723 5723 5722 5719 5718 5717 5715 5714 5712 5712 5711 5710 5709 5708 5707 5706 5705 5703 5702 5701 5700 5699 5698 5697 5697 5698 5698 5699 5698 5698 5698 5698 5697 5696 5696 5695 5694 5693 5691 5689 5687 5686 5684 5683 5682 5682 5681 5681 5681 5681 5682 5683 5684 5686 5687 5688 5688 5689 5690 5691 5691 5691 5691 5691 5692 5693 5693 5694 5695 5696 5697 5697 5698 5698 5699 5700 5701 5702 5704 5706 5708 5709
5728 5726 5725 5724 5724 5723 5722 5721 5720 5719 5717 5716 5714 5713 5712 5711 5710 5709 5709 5708 5706 5705 5704 5702 5701 5700 5699 5698 5697 5696 5696 5697 5697 5697 5697 5697 5697 5697 5696 5696 5695 5694 5694 5693 5691 5689 5687 5685 5684 5682 5681 5681 5680 5680 5680 5680 5681 5682 5683 5685 5687 5687 5688 5688 5690 5690 5691 5691 5691 5691 5693 5694 5694 5694 5695 5696 5697 5698 5699 5699 5700 5701 5701 5703 5704 5705 5706 5707
5726 5725 5723 5723 5723 5723 5721 5720 5719 5717 5716 5715 5714 5712 5711 5710 5710 5709 5708 5707 5705 5704 5703 5702 5700 5699 5698 5696 5695 5695 5695 5696 5696 5696 5696 5696 5696 5696 5696 5695 5695 5694 5694 5693 5691 5689 5687 5685 5684 5682 5681 5680 5679 5680 5680 5680 5681 5681 5683 5684 5685 5686 5687 5688 5689 5690 5691 5691 5691 5691 5693 5694 5695 5695 5695 5695 5696 5697 5698 5699 5700 5700 5701 5701 5702 5703 5704 5705
5725 5723 5722 5721 5721 5722 5721 5719 5717 5716 5715 5714 5713 5712 5711 5710 5709 5708 5707 5706 5705 5703 5702 5701 5699 5698 5696 5695 5694 5694 5694 5695 5695 5696 5696 5695 5695 5695 5695 5694 5694 5694 5693 5692 5691 5689 5688 5686 5684 5683 5682 5680 5679 5679 5679 5680 5680 5681 5682 5683 5684 5685 5686 5688 5689 5690 5691 5692 5692 5692 5693 5694 5694 5694 5694 5694 5694 5695 5696 5697 5697 5698 5699 5699 5700 5701 5701 5702
5723 5721 5721 5720 5720 5719 5719 5718 5717 5715 5714 5713 5712 5711 5711 5710 5709 5708 5707 5706 5704 5702 5701 5700 5698 5697 5695 5694 5693 5693 5693 5694 5694 5695 5695 5695 5694 5694 5694 5694 5693 5693 5693 5692 5691 5689 5688 5687 5685 5684 5682 5681 5680 5680 5679 5679 5680 5680 5681 5682 5683 5684 5686 5687 5688 5689 5690 5691 5692 5692 5693 5693 5693 5693 5693 5693 5693 5693 5694 5694 5695 5695 5695 5696 5696 5697 5698 5698
5721 5719 5718 5719 5719 5718 5717 5717 5715 5714 5713 5712 5711 5710 5710 5710 5709 5707 5706 5705 5703 5702 5700 5699 5698 5696 5694 5693 5692 5692 5692 5693 5693 5694 5694 5694 5694 5694 5694 5693 5693 5693 5693 5692 5691 5689 5688 5687 5686 5685 5683 5682 5681 5680 5680 5680 5680 5680 5681 5682 5683 5684 5685 5686 5687 5688 5690 5691 5692 5692 5692 5692 5692 5692 5692 5692 5692 5692 5691 5692 5692 5692 5692 5692 5692 5693 5693 5694
5720 5718 5717 5717 5717 5717 5716 5715 5714 5713 5712 5711 5710 5709 5709 5709 5708 5707 5705 5704 5703 5701 5700 5698 5697 5695 5693 5692 5692 5691 5692 5692 5693 5693 5694 5694 5693 5693 5693 5693 5692 5692 5692 5692 5691 5689 5688 5687 5687 5686 5684 5683 5682 5681 5681 5681 5680 5681 5681 5682 5683 5684 5685 5685 5686 5687 5689 5690 5690 5690 5691 5691 5691 5690 5690 5690 5690 5689 5689 5689 5690 5689 5688 5688 5688 5688 5688 5689
5718 5717 5716 5715 5715 5715 5714 5713 5712 5711 5711 5710 5709 5709 5708 5708 5707 5706 5705 5704 5702 5701 5699 5698 5696 5694 5692 5692 5691 5691 5691 5691 5692 5693 5693 5693 5693 5693 5692 5692 5692 5692 5692 5691 5691 5690 5689 5688 5688 5687 5685 5684 5683 5682 5682 5681 5681 5681 5682 5682 5683 5683 5684 5685 5686 5687 5688 5689 5689 5689 5689 5690 5690 5689 5689 5688 5687 5687 5687 5687 5686 5686 5685 5685 5685 5684 5684 5684
5717 5716 5715 5714 5713 5713 5712 5712 5711 5710 5709 5709 5708 5708 5708 5707 5706 5705 5704 5703 5702 5701 5699 5697 5695 5693 5692 5691 5690 5690 5690 5690 5691 5692 5692 5692 5693 5692 5692 5692 5691 5691 5691 5691 5691 5690 5689 5689 5688 5687 5687 5685 5684 5683 5683 5682 5682 5682 5682 5682 5683 5683 5684 5684 5685 5686 5687 5688 5688 5688 5688 5688 5688 5688 5687 5686 5686 5685 5685 5685 5684 5683 5683 5683 5682 5682 5681 5681
5715 5714 5713 5712 5712 5711 5711 5710 5709 5708 5708 5708 5707 5707 5707 5707 5706 5705 5704 5703 5702 5700 5698 5696 5694 5693 5691 5690 5690 5690 5690 5690 5691 5691 5692 5692 5692 5692 5692 5691 5691 5691 5690 5691 5690 5690 5689 5689 5688 5688 5687 5687 5686 5685 5684 5683 5683 5682 5682 5682 5683 5683 5683 5684 5685 5686 5686 5687 5687 5687 5687 5687 5686 5686 5685 5684 5684 5683 5683 5682 5681 5681 5681 5681 5680 5680 5679 5679
5714 5713 5711 5711 5710 5710 5709 5708 5708 5707 5707 5706 5706 5706 5706 5706 5705 5704 5704 5703 5701 5700 5698 5696 5694 5692 5691 5690 5689 5689 5689 5689 5690 5690 5691 5691 5692 5692 5692 5691 5691 5690 5690 5690 5690 5690 5690 5689 5688 5688 5688 5687 5687 5686 5685 5684 5684 5683 5683 5683 5683 5683 5683 5683 5684 5684 5685 5685 5686 5686 5685 5685 5684 5684 5683 5683 5682 5682 5681 5680 5679 5679 5679 5678 5678 5678 5677 5677